Location: Brno
(49.2000°N, 16.6330°E)
Time: 22:29:58
(UTC+02:00)

CARTOSAT-1 - Visible Passes

Search period start: 28 July 2014 00:00
Search period end: 07 August 2014 00:00
Orbit: 617 x 619 km, 97.8° (Epoch: 28 July)

Date Brightness Start Highest point End Pass type
(mag) Time Alt. Az. Time Alt. Az. Time Alt. Az.
28 Jul 4.8 21:45:00 12° ESE 21:48:19 28° ENE 21:51:59 10° N visible
28 Jul 4.7 23:22:08 22° SSW 23:24:17 36° W 23:28:17 10° NNW visible
29 Jul 4.3 22:02:00 16° SE 22:04:57 38° ENE 22:08:58 10° N visible
29 Jul 5.3 23:39:08 18° SW 23:41:09 25° W 23:44:45 10° NW visible
30 Jul 3.8 22:19:00 22° SE 22:21:38 55° ENE 22:25:52 10° N visible
30 Jul 5.7 23:56:08 14° WSW 23:58:04 18° W 00:00:59 10° NW visible
31 Jul 3.5 22:35:59 27° SSE 22:38:21 81° ENE 22:42:41 10° NNW visible
01 Aug 6.1 00:13:17 10° WSW 00:15:01 12° W 00:16:45 10° WNW visible
01 Aug 5.5 21:16:52 10° E 21:19:31 16° ENE 21:22:10 10° NNE visible
01 Aug 3.7 22:52:59 29° S 22:55:06 70° WSW 22:59:25 10° NNW visible
02 Aug 5.1 21:32:51 10° ESE 21:36:05 22° ENE 21:39:24 10° NNE visible
02 Aug 4.3 23:09:59 28° SSW 23:11:53 47° W 23:16:05 10° NNW visible
03 Aug 4.7 21:49:52 15° ESE 21:52:41 30° ENE 21:56:28 10° N visible
03 Aug 4.9 23:27:00 24° SW 23:28:43 32° W 23:32:38 10° NNW visible
04 Aug 4.2 22:06:52 21° SE 22:09:20 42° ENE 22:13:25 10° N visible
04 Aug 5.4 23:44:00 19° WSW 23:45:36 23° W 23:49:02 10° NW visible
05 Aug 3.7 22:23:52 28° SE 22:26:01 61° ENE 22:30:18 10° N visible
06 Aug 5.8 00:01:00 14° WSW 00:02:31 16° W 00:05:12 10° NW visible
06 Aug 5.7 21:05:24 10° E 21:07:19 13° ENE 21:09:14 10° NNE visible
06 Aug 3.5 22:40:52 34° SSE 22:42:45 89° ENE 22:47:05 10° NNW visible
